Weather History for Cartersville, GA

Change the Weather History Date:

Saturday, December 28, 2013

  Actual Average Record
Temperature  
Mean Temperature 36 °F 41 °F  
Max Temperature 43 °F 51 °F 68 °F (2007)
Min Temperature 28 °F 31 °F 19 °F (2010)
Degree Days  
Heating Degree Days 29 24  
Month to date heating degree days 545 621  
Since 1 July heating degree days 1200 1230  
Moisture  
Dew Point 34 °F    
Average Humidity 79    
Maximum Humidity 93    
Minimum Humidity 65    
Precipitation  
Precipitation 0.16 in 0.10 in 2.35 in (1983)
Month to date precipitation 9.53 3.95  
Snow  
Snow 0.00 in - - ()
Month to date snowfall 0.0  
Since 1 July snowfall 0.0  
Snow Depth 0.00 in    
Sea Level Pressure  
Sea Level Pressure 30.24 in    
Wind  
Wind Speed 2 mph (East)    
Max Wind Speed 14 mph    
Max Gust Speed 24 mph    
Visibility 8 miles    
Events Rain    
T = Trace of Precipitation, MM = Missing Value Source: NWS Daily Summary

Daily Weather History Graph

Daily Weather History Graph

Search for Another Location

Airport:

Trip Planner

Search our weather history database for the weather conditions in past years. The results will help you decide how hot, cold, wet, or windy it might be!

Date:

Astronomy

Dec. 28, 2013 Rise Set
Actual Time 7:44 AM EST 5:38 PM EST
Civil Twilight 7:16 AM EST 6:05 PM EST
Nautical Twilight 6:45 AM EST 6:37 PM EST
Astronomical Twilight 6:14 AM EST 7:07 PM EST
Moon 3:26 AM EST (12/28) 2:23 PM EST (12/28)
Length of Visible Light 10h 49m
Length of Day
9h 53m
Waning Crescent, 19% of the Moon is Illuminated
Dec 28
Waning Crescent
Jan 1
New
Jan 7
First Quarter
Jan 15
Full
Jan 24
Last Quarter

Hourly Weather History & Observations

Time (EST) Temp. Windchill Dew Point Humidity Pressure Visibility Wind Dir Wind Speed Gust Speed Precip Events Conditions
12:53 AM 28.9 °F - 27.0 °F 92% 30.40 in 10.0 mi Calm Calm - N/A   Clear
1:53 AM 28.0 °F - 26.1 °F 92% 30.38 in 10.0 mi Calm Calm - N/A   Clear
2:53 AM 30.0 °F - 27.0 °F 88% 30.39 in 9.0 mi Calm Calm - N/A   Clear
3:53 AM 32.0 °F - 28.9 °F 88% 30.38 in 10.0 mi Calm Calm - N/A   Clear
4:53 AM 32.0 °F - 28.9 °F 88% 30.37 in 10.0 mi Calm Calm - N/A   Clear
5:53 AM 30.9 °F - 28.9 °F 92% 30.35 in 10.0 mi Calm Calm - N/A   Clear
6:53 AM 33.1 °F - 30.0 °F 89% 30.36 in 10.0 mi Calm Calm - N/A   Clear
7:53 AM 34.0 °F - 30.0 °F 85% 30.35 in 10.0 mi Calm Calm - N/A   Clear
8:53 AM 37.0 °F 33.3 °F 28.9 °F 73% 30.37 in 10.0 mi East 4.6 mph - N/A   Partly Cloudy
9:53 AM 39.0 °F - 30.9 °F 73% 30.36 in 10.0 mi Calm Calm - N/A   Mostly Cloudy
10:53 AM 41.0 °F - 30.9 °F 67% 30.38 in 10.0 mi Calm Calm - N/A   Overcast
11:53 AM 42.1 °F - 34.0 °F 73% 30.37 in 6.0 mi Calm Calm - 0.00 in Rain Light Rain
12:53 PM 41.0 °F - 37.9 °F 89% 30.32 in 6.0 mi Calm Calm - 0.01 in   Overcast
1:53 PM 42.1 °F - 37.0 °F 82% 30.27 in 10.0 mi Calm Calm - 0.01 in   Overcast
2:53 PM 43.0 °F - 37.9 °F 82% 30.26 in 8.0 mi Calm Calm - 0.01 in Rain Light Rain
3:53 PM 42.1 °F - 37.9 °F 85% 30.22 in 9.0 mi Calm Calm - 0.01 in Rain Light Rain
4:53 PM 42.1 °F - 37.9 °F 85% 30.19 in 8.0 mi Calm Calm - 0.01 in   Overcast
5:53 PM 41.0 °F 38.0 °F 37.0 °F 86% 30.15 in 10.0 mi East 4.6 mph - 0.01 in Rain Light Rain
6:53 PM 41.0 °F - 37.0 °F 86% 30.17 in 6.0 mi Calm Calm - 0.01 in Rain Light Rain
7:53 PM 39.9 °F 35.1 °F 37.0 °F 89% 30.12 in 5.0 mi East 6.9 mph - N/A Rain Rain
8:53 PM 39.9 °F 33.9 °F 37.0 °F 89% 30.06 in 5.0 mi East 9.2 mph 18.4 mph N/A Rain Rain
9:33 PM 39.2 °F 32.0 °F 37.4 °F 93% 30.04 in 5.0 mi East 11.5 mph 21.9 mph 0.01 in Rain Light Rain
9:53 PM 39.9 °F 33.9 °F 37.9 °F 93% 30.02 in 7.0 mi East 9.2 mph 21.9 mph 0.02 in Rain Light Rain
10:53 PM 41.0 °F 35.8 °F 39.0 °F 93% 29.99 in 5.0 mi ESE 8.1 mph 24.2 mph N/A Rain Rain
11:02 PM 41.0 °F 34.7 °F 39.2 °F 93% 29.99 in 4.0 mi East 10.4 mph 17.3 mph 0.00 in Rain Light Rain
11:53 PM 42.1 °F 37.7 °F 39.9 °F 92% 29.99 in 4.0 mi East 6.9 mph - 0.02 in Rain Light Rain